Flag for Switzerland Weather past 2 weeks in Sion, Valais, Switzerland

Now
39 °F

Chilly.


Feels Like: 32 °F
Forecast: 9 / 47 °F
Wind: 12 mph from West

Location: Sion

Current Time: Feb 28, 2015 at 12:27:29 AM

Latest Report: Feb 27, 2015 at 11:00 PM


Visibility: N/A

Pressure: 30.13 "Hg

Humidity: 68%

Dew point: 29 °F

Location of SionLocation

Historic Weather in Sion — Graph

°F

Sion temperature yesterday

Maximum temperature yesterday: 43 °F (at 4:00 PM)
Minimum temperature yesterday: 37 °F (at 1:00 AM)
Average temperature yesterday: 40 °F

Past Weeks' High & Low Weather Summary

 TemperatureHumidityPressure
High53 °F (Feb 16, 4:00 PM)95% (Feb 15, 7:00 AM)30.70 "Hg (Feb 15, 7:00 AM)
Low27 °F (Feb 20, 5:00 AM)17% (Feb 20, 3:00 PM)29.53 "Hg (Feb 21, 1:00 PM)
Average37 °F69%30.08 "Hg
* Reported Feb 12 11:00 PM — Feb 27 11:00 PM, Sion, Weather by CustomWeather, © 2015

Note: Actual official high and low records may vary slightly from our data, if they occured in-between our weather recording intervals... More about our weather records

Advertising

Sion weather history for previous 24 hours

 ConditionsComfort  
Time TempWeatherWind HumidityBarometerVisibility
11:00 PM
Fri, Feb 27
39 °FChilly.12 mph68%30.13 "HgN/A
10:00 PM39 °FOvercast.12 mph72%30.12 "Hg12 mi
9:00 PM41 °FQuite cool.9 mph67%30.11 "HgN/A
8:00 PM40 °FQuite cool.9 mph69%30.09 "HgN/A
7:00 PM41 °FOvercast.12 mph70%30.07 "Hg9 mi
6:00 PM41 °FQuite cool.10 mph69%30.05 "HgN/A
5:00 PM42 °FQuite cool.9 mph65%30.01 "HgN/A
4:00 PM43 °FOvercast.8 mph68%29.99 "Hg9 mi
3:00 PM42 °FQuite cool.10 mph71%29.99 "HgN/A
2:00 PM40 °FChilly.10 mph77%29.98 "HgN/A
1:00 PM39 °FDrizzle. Overcast.8 mph78%29.99 "Hg9 mi
12:00 PM39 °FChilly.2 mph78%29.98 "HgN/A
11:00 AM39 °FChilly.3 mph79%29.96 "HgN/A
10:00 AM40 °FOvercast.3 mph61%29.94 "Hg9 mi
9:00 AM39 °FChilly.2 mph58%29.93 "HgN/A
8:00 AM38 °FChilly.2 mph62%29.93 "HgN/A
7:00 AM38 °FOvercast.5 mph54%29.93 "Hg9 mi
6:00 AM39 °FChilly.3 mph57%29.93 "HgN/A
5:00 AM38 °FChilly.3 mph55%29.93 "HgN/A
3:00 AM38 °FChilly.3 mph52%29.98 "HgN/A
2:00 AM38 °FChilly.2 mph56%30.00 "HgN/A
1:00 AM37 °FOvercast.2 mph58%30.01 "Hg9 mi
12:00 AM39 °FChilly.6 mph50%30.02 "HgN/A
Weather by CustomWeather, © 2015

See weather overviewHow to use our weather pages